This is the latest recevied weather packets stored in our database for station/object KY0TEQ-13. If no packets are shown the sender has not sent any weather packets the latest 10 day(s).
| Time | Temp. | Humidity | Pressure | Rain* | Wind** | Luminosity | Snow |
|---|---|---|---|---|---|---|---|
| 1777586863 | 16.67° C | 17% | 1297.1 hPa | 0 mm | - | 584 W/m² | - |
| 1777586559 | 16.67° C | 15% | 1297.1 hPa | 0 mm | - | 580 W/m² | - |
| 1777586255 | 16.11° C | 15% | 1297.3 hPa | 0 mm | - | 587 W/m² | - |
| 1777585952 | 16.67° C | 16% | 1297.3 hPa | 0 mm | - | 598 W/m² | - |
| 1777585648 | 17.22° C | 15% | 1297.2 hPa | 0 mm | - | 609 W/m² | - |
| 1777585343 | 17.22° C | 16% | 1297.2 hPa | 0 mm | - | 626 W/m² | - |
| 1777585038 | 16.67° C | 18% | 1297.4 hPa | 0 mm | - | 646 W/m² | - |
| 1777584735 | 16.67° C | 17% | 1297.4 hPa | 0 mm | - | 701 W/m² | - |
| 1777584433 | 15° C | 18% | 1297.4 hPa | 0 mm | - | 247 W/m² | - |
| 1777584129 | 15° C | 17% | 1297.6 hPa | 0 mm | - | 200 W/m² | - |
| 1777583828 | 15.56° C | 17% | 1297.8 hPa | 0 mm | - | 157 W/m² | - |
| 1777583524 | 15.56° C | 17% | 1297.8 hPa | 0 mm | - | 677 W/m² | - |
| 1777583223 | 16.11° C | 15% | 1297.8 hPa | 0 mm | - | 785 W/m² | - |
| 1777582913 | 16.67° C | 16% | 1297.7 hPa | 0 mm | - | 190 W/m² | - |
| 1777582611 | 16.67° C | 16% | 1297.9 hPa | 0 mm | - | 734 W/m² | - |
| 1777582310 | 16.67° C | 18% | 1297.8 hPa | 0 mm | - | 572 W/m² | - |
| 1777582009 | 16.11° C | 15% | 1298.2 hPa | 0 mm | - | 510 W/m² | - |
| 1777581704 | 16.11° C | 18% | 1297.8 hPa | 0 mm | - | 854 W/m² | - |
| 1777581404 | 15.56° C | 17% | 1297.8 hPa | 0 mm | - | 187 W/m² | - |
| 1777581104 | 16.67° C | 17% | 1298.1 hPa | 0 mm | - | 236 W/m² | - |
| 1777580803 | 16.11° C | 15% | 1297.8 hPa | 0 mm | - | 939 W/m² | - |
| 1777580500 | 16.11° C | 16% | 1297.9 hPa | 0 mm | - | 933 W/m² | - |
| 1777580195 | 17.22° C | 15% | 1298.2 hPa | 0 mm | - | 477 W/m² | - |
| 1777579892 | 15.56° C | 16% | 1297.8 hPa | 0 mm | - | 967 W/m² | - |
| 1777579591 | 16.67° C | 15% | 1297.9 hPa | 0 mm | - | 833 W/m² | - |
* Rain latest hour (hover to see other rain measurements)
** Current wind speed in m/s (hover to see current wind gust speed)